Location: Cartignies
(50.0929°N, 3.8447°E)
Time: 14:34:27
(UTC+00:00)

Cosmos 1943 - Pass Details

Date: 12 January 2026
Orbit: 830 x 850 km, 71.0° (Epoch: 16 February)

Event Time Altitude Azimuth Distance (km) Brightness Sun altitude
Rises 17:28:50 0° 193° (SSW) 3,368 6.8 -12.6°
Reaches altitude 10° 17:31:17 10° 189° (S) 2,441 6.0 -13.0°
Maximum altitude 17:36:45 57° 112° (ESE) 983 3.3 -13.9°
Enters shadow 17:41:26 14° 37° (NE) 2,164 4.9 -14.6°
